,,Stat6,,Stat2,,Stat8,,Stat9,,Stat10,,Wind1,,Wind1,
time,status,PA1M_AVG,status,PR1M_SUM,status,RH1M_AVG,status,SR1M_AVG,status,TA1M_AVG,status,W1dAve1m,status,W1sAve1m,
2005-05-23, 00:00:00,VALID,917.873,VALID,0,VALID,96.2312,VALID,-0.0509425,VALID,21.6192,VALID,2,VALID,0.488377,
2005-05-23, 00:01:00,VALID,917.886,VALID,0,VALID,96.3419,VALID,-0.0679233,VALID,21.6224,VALID,3,VALID,0.560724,
2005-05-23, 00:02:00,VALID,917.9,VALID,0,VALID,96.3113,VALID,-0.0339617,VALID,21.6257,VALID,3,VALID,0.631214,
2005-05-23, 00:03:00,VALID,917.91,VALID,0,VALID,96.2668,VALID,-0.0169808,VALID,21.6187,VALID,4,VALID,0.775694,
2005-05-23, 00:04:00,VALID,917.898,VALID,0,VALID,96.2401,VALID,-0.0339617,VALID,21.6031,VALID,18,VALID,0.462028,
2005-05-23, 00:05:00,VALID,917.92,VALID,0,VALID,96.3927,VALID,-0.0169808,VALID,21.6093,VALID,18,VALID,0.384993,
2005-05-23, 00:06:00,VALID,917.915,VALID,0,VALID,96.4156,VALID,-0.0169808,VALID,21.6348,VALID,18,VALID,0.360518,
2005-05-23, 00:07:00,VALID,917.901,VALID,0,VALID,96.2986,VALID,0.0679233,VALID,21.6464,VALID,18,VALID,0.346058,
2005-05-23, 00:08:00,VALID,917.901,VALID,0,VALID,96.2172,VALID,0.101885,VALID,21.6472,VALID,360,VALID,0.284722,
2005-05-23, 00:09:00,VALID,917.886,VALID,0,VALID,96.2935,VALID,0.0509425,VALID,21.6504,VALID,348,VALID,0.0882241,
2005-05-23, 00:10:00,VALID,917.87,VALID,0,VALID,96.2299,VALID,0.0169808,VALID,21.6604,VALID,348,VALID,0.194041,
2005-05-23, 00:11:00,VALID,917.875,VALID,0,VALID,96.1358,VALID,0.0169808,VALID,21.6569,VALID,348,VALID,0.179688,
2005-05-23, 00:12:00,VALID,917.883,VALID,0,VALID,96.0596,VALID,0.0169808,VALID,21.6698,VALID,348,VALID,0.0580078,
2005-05-23, 00:13:00,VALID,917.891,VALID,0,VALID,95.9502,VALID,0.0169808,VALID,21.6827,VALID,348,VALID,0.000887784,
2005-05-23, 00:14:00,VALID,917.895,VALID,0,VALID,95.9782,VALID,0.0679233,VALID,21.6954,VALID,348,VALID,0.0985863,
2005-05-23, 00:15:00,VALID,917.901,VALID,0,VALID,96.085,VALID,0.0339617,VALID,21.7306,VALID,348,VALID,0.00967262,
2005-05-23, 00:16:00,VALID,917.899,VALID,0,VALID,96.0774,VALID,0.0509425,VALID,21.7796,VALID,348,VALID,0.012718,
2005-05-23, 00:17:00,VALID,917.896,VALID,0,VALID,95.8815,VALID,0.101885,VALID,21.8049,VALID,348,VALID,0.0163517,
2005-05-23, 00:18:00,VALID,917.9,VALID,0,VALID,95.687,VALID,0.0339617,VALID,21.8214,VALID,348,VALID,0,
2005-05-23, 00:19:00,VALID,917.9,VALID,0,VALID,95.6234,VALID,0.0849042,VALID,21.8405,VALID,348,VALID,0,
2005-05-23, 00:20:00,VALID,917.915,VALID,0,VALID,95.5191,VALID,0.0849042,VALID,21.8636,VALID,348,VALID,0,
2005-05-23, 00:21:00,VALID,917.894,VALID,0,VALID,95.4975,VALID,0.0679233,VALID,21.873,VALID,348,VALID,0,
2005-05-23, 00:22:00,VALID,917.893,VALID,0,VALID,95.453,VALID,0,VALID,21.868,VALID,348,VALID,0,
2005-05-23, 00:23:00,VALID,917.894,VALID,0,VALID,95.4161,VALID,-0.0339617,VALID,21.8674,VALID,348,VALID,0,
2005-05-23, 00:24:00,VALID,917.912,VALID,0,VALID,95.4644,VALID,-0.0509425,VALID,21.8812,VALID,348,VALID,0.141984,
2005-05-23, 00:25:00,VALID,917.911,VALID,0,VALID,95.4962,VALID,-0.0849042,VALID,21.8941,VALID,348,VALID,0.276634,
2005-05-23, 00:26:00,VALID,917.921,VALID,0,VALID,95.4708,VALID,-0.0339617,VALID,21.9038,VALID,348,VALID,0.289063,
2005-05-23, 00:27:00,VALID,917.922,VALID,0,VALID,95.3119,VALID,-0.0339617,VALID,21.8871,VALID,348,VALID,0.181362,
2005-05-23, 00:28:00,VALID,917.913,VALID,0,VALID,94.9405,VALID,-0.0339617,VALID,21.8844,VALID,348,VALID,0.165396,
2005-05-23, 00:29:00,VALID,917.909,VALID,0,VALID,95.0715,VALID,-0.0849042,VALID,21.8524,VALID,348,VALID,0.211133,
2005-05-23, 00:30:00,VALID,917.892,VALID,0,VALID,95.4568,VALID,-0.0509425,VALID,21.8297,VALID,348,VALID,0.244665,
2005-05-23, 00:31:00,VALID,917.883,VALID,0,VALID,95.5535,VALID,-0.0339617,VALID,21.8001,VALID,348,VALID,0.276414,
2005-05-23, 00:32:00,VALID,917.856,VALID,0,VALID,95.6425,VALID,-0.0339617,VALID,21.7945,VALID,348,VALID,0.394717,
2005-05-23, 00:33:00,VALID,917.829,VALID,0,VALID,95.6654,VALID,0,VALID,21.7587,VALID,343,VALID,0.44401,
2005-05-23, 00:34:00,VALID,917.804,VALID,0,VALID,95.8917,VALID,0,VALID,21.732,VALID,259,VALID,0.514323,
2005-05-23, 00:35:00,VALID,917.781,VALID,0,VALID,96.0723,VALID,-0.0169808,VALID,21.7358,VALID,213,VALID,0.580729,
2005-05-23, 00:36:00,VALID,917.753,VALID,0,VALID,96.1664,VALID,-0.0339617,VALID,21.7296,VALID,195,VALID,0.513207,
2005-05-23, 00:37:00,VALID,917.735,VALID,0,VALID,96.3304,VALID,-0.0509425,VALID,21.7234,VALID,195,VALID,0.299183,
2005-05-23, 00:38:00,VALID,917.717,VALID,0,VALID,96.3787,VALID,-0.0679233,VALID,21.7102,VALID,195,VALID,0.537246,
2005-05-23, 00:39:00,VALID,917.694,VALID,0,VALID,96.3749,VALID,-0.0849042,VALID,21.6941,VALID,195,VALID,0.242569,
2005-05-23, 00:40:00,VALID,917.668,VALID,0,VALID,96.3533,VALID,-0.0509425,VALID,21.6906,VALID,195,VALID,0.145167,
2005-05-23, 00:41:00,VALID,917.65,VALID,0,VALID,96.1956,VALID,-0.0509425,VALID,21.7078,VALID,195,VALID,0.235243,
2005-05-23, 00:42:00,VALID,917.625,VALID,0,VALID,96.1893,VALID,-0.0849042,VALID,21.6714,VALID,195,VALID,0.311384,
2005-05-23, 00:43:00,VALID,917.606,VALID,0,VALID,96.1829,VALID,-0.101885,VALID,21.6553,VALID,195,VALID,0.18608,
2005-05-23, 00:44:00,VALID,917.58,VALID,0,VALID,96.1079,VALID,-0.0849042,VALID,21.6556,VALID,195,VALID,0.168713,
2005-05-23, 00:45:00,VALID,917.56,VALID,0,VALID,96.0913,VALID,-0.0679233,VALID,21.6483,VALID,195,VALID,0.246916,
2005-05-23, 00:46:00,VALID,917.535,VALID,0,VALID,96.0036,VALID,-0.0679233,VALID,21.6453,VALID,195,VALID,0.279797,
2005-05-23, 00:47:00,VALID,917.524,VALID,0,VALID,96.0634,VALID,-0.0849042,VALID,21.6518,VALID,195,VALID,0.158026,
2005-05-23, 00:48:00,VALID,917.512,VALID,0,VALID,96.1308,VALID,-0.0849042,VALID,21.6615,VALID,195,VALID,0.0514482,
2005-05-23, 00:49:00,VALID,917.495,VALID,0,VALID,96.1448,VALID,-0.0849042,VALID,21.6747,VALID,195,VALID,0.00208333,
2005-05-23, 00:50:00,VALID,917.484,VALID,0,VALID,96.2325,VALID,-0.0169808,VALID,21.6844,VALID,195,VALID,0,
2005-05-23, 00:51:00,VALID,917.461,VALID,0,VALID,96.174,VALID,-0.0509425,VALID,21.6938,VALID,195,VALID,0,
2005-05-23, 00:52:00,VALID,917.448,VALID,0,VALID,96.0913,VALID,-0.0169808,VALID,21.704,VALID,195,VALID,0.00093006,
2005-05-23, 00:53:00,VALID,917.42,VALID,0,VALID,96.1397,VALID,-0.0339617,VALID,21.7075,VALID,195,VALID,0,
2005-05-23, 00:54:00,VALID,917.406,VALID,0,VALID,96.1956,VALID,-0.0509425,VALID,21.707,VALID,195,VALID,0,
2005-05-23, 00:55:00,VALID,917.398,VALID,0,VALID,96.1778,VALID,-0.0849042,VALID,21.714,VALID,195,VALID,0,
2005-05-23, 00:56:00,VALID,917.38,VALID,0,VALID,96.2605,VALID,-0.0849042,VALID,21.6846,VALID,195,VALID,0,
2005-05-23, 00:57:00,VALID,917.378,VALID,0,VALID,96.4512,VALID,-0.101885,VALID,21.6752,VALID,195,VALID,0.00301847,
2005-05-23, 00:58:00,VALID,917.345,VALID,0,VALID,96.7182,VALID,-0.0679233,VALID,21.6486,VALID,214,VALID,0.599276,
2005-05-23, 00:59:00,VALID,917.341,VALID,0,VALID,97.1671,VALID,-0.0509425,VALID,21.6106,VALID,238,VALID,0.755996,
2005-05-23, 01:00:00,VALID,917.322,VALID,0,VALID,97.5333,VALID,-0.0679233,VALID,21.5675,VALID,240,VALID,0.625186,
2005-05-23, 01:01:00,VALID,917.291,VALID,0,VALID,97.7889,VALID,-0.0679233,VALID,21.5552,VALID,237,VALID,0.318026,
2005-05-23, 01:02:00,VALID,917.28,VALID,0,VALID,97.9364,VALID,-0.0849042,VALID,21.5622,VALID,236,VALID,0.258539,
2005-05-23, 01:03:00,VALID,917.26,VALID,0,VALID,97.9771,VALID,-0.101885,VALID,21.5686,VALID,237,VALID,0.658854,
2005-05-23, 01:04:00,VALID,917.241,VALID,0,VALID,97.986,VALID,-0.0679233,VALID,21.5422,VALID,238,VALID,0.726381,
2005-05-23, 01:05:00,VALID,917.22,VALID,0,VALID,98.0954,VALID,-0.0849042,VALID,21.5035,VALID,244,VALID,0.696057,
2005-05-23, 01:06:00,VALID,917.215,VALID,0,VALID,98.2594,VALID,-0.0679233,VALID,21.4943,VALID,240,VALID,0.659157,
2005-05-23, 01:07:00,VALID,917.195,VALID,0,VALID,98.3828,VALID,-0.0169808,VALID,21.4776,VALID,247,VALID,0.71189,
2005-05-23, 01:08:00,VALID,917.176,VALID,0,VALID,98.5481,VALID,-0.0169808,VALID,21.4615,VALID,247,VALID,0.47247,
2005-05-23, 01:09:00,VALID,917.159,VALID,0,VALID,98.5862,VALID,-0.0169808,VALID,21.4647,VALID,247,VALID,0.252544,
2005-05-23, 01:10:00,VALID,917.133,VALID,0,VALID,98.5977,VALID,-0.0169808,VALID,21.4612,VALID,253,VALID,0.41915,
2005-05-23, 01:11:00,VALID,917.1,VALID,0,VALID,98.6422,VALID,-0.0169808,VALID,21.4574,VALID,280,VALID,0.18968,
2005-05-23, 01:12:00,VALID,917.078,VALID,0,VALID,98.6167,VALID,0.0169808,VALID,21.4838,VALID,280,VALID,0.323475,
2005-05-23, 01:13:00,VALID,917.055,VALID,0,VALID,98.5188,VALID,-0.0169808,VALID,21.4903,VALID,280,VALID,0.12862,
2005-05-23, 01:14:00,VALID,917.036,VALID,0,VALID,98.4832,VALID,-0.0169808,VALID,21.5097,VALID,280,VALID,0.00228659,
2005-05-23, 01:15:00,VALID,917.014,VALID,0,VALID,98.4044,VALID,-0.0169808,VALID,21.5191,VALID,271,VALID,0.207304,
2005-05-23, 01:16:00,VALID,917.008,VALID,0,VALID,98.3408,VALID,0,VALID,21.5161,VALID,249,VALID,0.282848,
2005-05-23, 01:17:00,VALID,916.991,VALID,0,VALID,98.3955,VALID,0,VALID,21.5097,VALID,250,VALID,0.0665923,
2005-05-23, 01:18:00,VALID,916.998,VALID,0,VALID,98.5087,VALID,-0.0169808,VALID,21.5223,VALID,250,VALID,0.000952744,
2005-05-23, 01:19:00,VALID,916.988,VALID,0,VALID,98.4324,VALID,0,VALID,21.5455,VALID,250,VALID,0.00724085,
2005-05-23, 01:20:00,VALID,916.978,VALID,0,VALID,98.3675,VALID,0,VALID,21.5549,VALID,287,VALID,0.325347,
2005-05-23, 01:21:00,VALID,916.96,VALID,0,VALID,98.4349,VALID,0,VALID,21.571,VALID,353,VALID,0.203307,
2005-05-23, 01:22:00,VALID,916.956,VALID,0,VALID,98.3586,VALID,-0.0849042,VALID,21.5985,VALID,353,VALID,0.068859,
2005-05-23, 01:23:00,VALID,916.953,VALID,0,VALID,98.1691,VALID,-0.101885,VALID,21.5982,VALID,354,VALID,0.679315,
2005-05-23, 01:24:00,VALID,916.931,VALID,0,VALID,97.9822,VALID,-0.101885,VALID,21.5756,VALID,5,VALID,0.776172,
2005-05-23, 01:25:00,VALID,916.941,VALID,0,VALID,98.0255,VALID,-0.101885,VALID,21.5592,VALID,16,VALID,0.766897,
2005-05-23, 01:26:00,VALID,916.931,VALID,0,VALID,97.967,VALID,-0.118866,VALID,21.5498,VALID,3,VALID,0.683036,
2005-05-23, 01:27:00,VALID,916.921,VALID,0,VALID,97.9479,VALID,-0.101885,VALID,21.5336,VALID,360,VALID,0.645198,
2005-05-23, 01:28:00,VALID,916.9,VALID,0,VALID,97.9326,VALID,-0.101885,VALID,21.521,VALID,349,VALID,0.591518,
2005-05-23, 01:29:00,VALID,916.902,VALID,0,VALID,97.9822,VALID,-0.118866,VALID,21.5175,VALID,359,VALID,0.558966,
2005-05-23, 01:30:00,VALID,916.879,VALID,0,VALID,97.9797,VALID,-0.101885,VALID,21.5113,VALID,5,VALID,0.231957,
2005-05-23, 01:31:00,VALID,916.866,VALID,0,VALID,97.9682,VALID,-0.101885,VALID,21.4916,VALID,2,VALID,0.104469,
2005-05-23, 01:32:00,VALID,916.856,VALID,0,VALID,97.9695,VALID,-0.118866,VALID,21.4916,VALID,2,VALID,0.109908,
2005-05-23, 01:33:00,VALID,916.854,VALID,0,VALID,97.9275,VALID,-0.101885,VALID,21.4919,VALID,2,VALID,0.00130208,
2005-05-23, 01:34:00,VALID,916.849,VALID,0,VALID,97.9097,VALID,-0.101885,VALID,21.4817,VALID,2,VALID,0,
2005-05-23, 01:35:00,VALID,916.844,VALID,0,VALID,97.9301,VALID,-0.118866,VALID,21.4755,VALID,2,VALID,0.215588,
2005-05-23, 01:36:00,VALID,916.847,VALID,0,VALID,97.8385,VALID,-0.0849042,VALID,21.4852,VALID,4,VALID,0.24657,
2005-05-23, 01:37:00,VALID,916.853,VALID,0,VALID,97.8678,VALID,-0.0169808,VALID,21.4709,VALID,54,VALID,0.360305,
2005-05-23, 01:38:00,VALID,916.855,VALID,0,VALID,97.9517,VALID,-0.0339617,VALID,21.4744,VALID,54,VALID,0.209549,
2005-05-23, 01:39:00,VALID,916.852,VALID,0,VALID,98.0115,VALID,-0.0339617,VALID,21.4577,VALID,54,VALID,0.164444,
2005-05-23, 01:40:00,VALID,916.841,VALID,0,VALID,98.0572,VALID,0.0169808,VALID,21.455,VALID,54,VALID,0.18457,
2005-05-23, 01:41:00,VALID,916.837,VALID,0,VALID,98.089,VALID,0,VALID,21.4281,VALID,54,VALID,0.255814,
2005-05-23, 01:42:00,VALID,916.834,VALID,0,VALID,98.089,VALID,0,VALID,21.4119,VALID,54,VALID,0.201265,
2005-05-23, 01:43:00,VALID,916.817,VALID,0,VALID,98.2289,VALID,0,VALID,21.4093,VALID,54,VALID,0.0119048,
2005-05-23, 01:44:00,VALID,916.806,VALID,0,VALID,98.4286,VALID,0,VALID,21.4154,VALID,54,VALID,0.00218023,
2005-05-23, 01:45:00,VALID,916.783,VALID,0,VALID,98.4743,VALID,0.0339617,VALID,21.4222,VALID,54,VALID,0,
2005-05-23, 01:46:00,VALID,916.775,VALID,0,VALID,98.4247,VALID,0,VALID,21.4451,VALID,54,VALID,0.0859375,
2005-05-23, 01:47:00,VALID,916.769,VALID,0,VALID,98.2467,VALID,0,VALID,21.4416,VALID,54,VALID,0.236421,
2005-05-23, 01:48:00,VALID,916.751,VALID,0,VALID,98.2518,VALID,0,VALID,21.4354,VALID,49,VALID,0.274182,
2005-05-23, 01:49:00,VALID,916.761,VALID,0,VALID,98.309,VALID,0,VALID,21.4381,VALID,47,VALID,0.329427,
2005-05-23, 01:50:00,VALID,916.744,VALID,0,VALID,98.1577,VALID,0,VALID,21.4451,VALID,47,VALID,0.270633,
2005-05-23, 01:51:00,VALID,916.741,VALID,0,VALID,98.0865,VALID,-0.0169808,VALID,21.4251,VALID,47,VALID,0.302148,
2005-05-23, 01:52:00,VALID,916.734,VALID,0,VALID,98.2734,VALID,-0.0169808,VALID,21.4095,VALID,47,VALID,0.313772,
2005-05-23, 01:53:00,VALID,916.73,VALID,0,VALID,98.3726,VALID,0,VALID,21.4192,VALID,47,VALID,0.236852,
2005-05-23, 01:54:00,VALID,916.707,VALID,0,VALID,98.4196,VALID,0,VALID,21.4289,VALID,47,VALID,0.292411,
2005-05-23, 01:55:00,VALID,916.69,VALID,0,VALID,98.3917,VALID,0,VALID,21.4348,VALID,47,VALID,0.176448,
2005-05-23, 01:56:00,VALID,916.67,VALID,0,VALID,98.4146,VALID,0,VALID,21.4642,VALID,47,VALID,0.0138081,
2005-05-23, 01:57:00,VALID,916.639,VALID,0,VALID,98.351,VALID,-0.0169808,VALID,21.4935,VALID,47,VALID,0,
2005-05-23, 01:58:00,VALID,916.614,VALID,0,VALID,98.2594,VALID,0.0169808,VALID,21.5226,VALID,47,VALID,0,
2005-05-23, 01:59:00,VALID,916.592,VALID,0,VALID,98.1869,VALID,0,VALID,21.5282,VALID,47,VALID,0.00228659,
2005-05-23, 02:00:00,VALID,916.564,VALID,0,VALID,98.0522,VALID,0,VALID,21.5514,VALID,47,VALID,0.00218023,
2005-05-23, 02:01:00,VALID,916.552,VALID,0,VALID,97.9517,VALID,0,VALID,21.5508,VALID,47,VALID,0.00297619,
2005-05-23, 02:02:00,VALID,916.548,VALID,0,VALID,97.9008,VALID,0,VALID,21.5681,VALID,48,VALID,0.0587713,
2005-05-23, 02:03:00,VALID,916.541,VALID,0,VALID,97.8665,VALID,0.0169808,VALID,21.5611,VALID,48,VALID,0.00726744,
2005-05-23, 02:04:00,VALID,916.533,VALID,0,VALID,97.8512,VALID,0.0169808,VALID,21.5705,VALID,48,VALID,0,
2005-05-23, 02:05:00,VALID,916.52,VALID,0,VALID,97.9097,VALID,-0.0169808,VALID,21.5872,VALID,48,VALID,0.012718,
2005-05-23, 02:06:00,VALID,916.499,VALID,0,VALID,97.9212,VALID,0,VALID,21.5802,VALID,47,VALID,0,
2005-05-23, 02:07:00,VALID,916.484,VALID,0,VALID,97.8843,VALID,0.0679233,VALID,21.5888,VALID,47,VALID,0.0443979,
2005-05-23, 02:08:00,VALID,916.469,VALID,0,VALID,97.8996,VALID,0.0849042,VALID,21.5791,VALID,47,VALID,0.123512,
2005-05-23, 02:09:00,VALID,916.467,VALID,0,VALID,97.9237,VALID,0.0509425,VALID,21.5597,VALID,47,VALID,0.16543,
2005-05-23, 02:10:00,VALID,916.445,VALID,0,VALID,97.8958,VALID,0.0509425,VALID,21.5438,VALID,47,VALID,0.24201,
2005-05-23, 02:11:00,VALID,916.441,VALID,0,VALID,98.0026,VALID,0.0679233,VALID,21.5468,VALID,47,VALID,0.167333,
2005-05-23, 02:12:00,VALID,916.436,VALID,0,VALID,98.103,VALID,0.0849042,VALID,21.5471,VALID,47,VALID,0.338481,
2005-05-23, 02:13:00,VALID,916.428,VALID,0,VALID,98.1424,VALID,0.0849042,VALID,21.5629,VALID,45,VALID,0.513808,
2005-05-23, 02:14:00,VALID,916.441,VALID,0,VALID,98.0305,VALID,0.0339617,VALID,21.5659,VALID,35,VALID,0.602134,
2005-05-23, 02:15:00,VALID,916.445,VALID,0,VALID,97.9771,VALID,0.0509425,VALID,21.5624,VALID,24,VALID,0.498884,
2005-05-23, 02:16:00,VALID,916.441,VALID,0,VALID,97.9809,VALID,0.0509425,VALID,21.5597,VALID,24,VALID,0.302028,
2005-05-23, 02:17:00,VALID,916.418,VALID,0,VALID,97.9593,VALID,0.0679233,VALID,21.5702,VALID,24,VALID,0.232639,
2005-05-23, 02:18:00,VALID,916.397,VALID,0,VALID,98,VALID,0.0849042,VALID,21.553,VALID,24,VALID,0.14755,
2005-05-23, 02:19:00,VALID,916.373,VALID,0,VALID,98.0293,VALID,0.0339617,VALID,21.5662,VALID,24,VALID,0.34048,
2005-05-23, 02:20:00,VALID,916.367,VALID,0,VALID,97.9835,VALID,0.0679233,VALID,21.5597,VALID,24,VALID,0.401278,
2005-05-23, 02:21:00,VALID,916.338,VALID,0,VALID,98.0191,VALID,0.0339617,VALID,21.5665,VALID,24,VALID,0.566134,
2005-05-23, 02:22:00,VALID,916.336,VALID,0,VALID,97.9784,VALID,-0.0509425,VALID,21.5584,VALID,24,VALID,0.616824,
2005-05-23, 02:23:00,VALID,916.332,VALID,0,VALID,97.8868,VALID,-0.0509425,VALID,21.5517,VALID,24,VALID,0.689732,
2005-05-23, 02:24:00,VALID,916.331,VALID,0,VALID,97.8805,VALID,-0.0169808,VALID,21.536,VALID,25,VALID,0.558966,
2005-05-23, 02:25:00,VALID,916.309,VALID,0,VALID,97.8868,VALID,-0.0679233,VALID,21.5202,VALID,32,VALID,0.765053,
2005-05-23, 02:26:00,VALID,916.291,VALID,0,VALID,98.0013,VALID,-0.0509425,VALID,21.4709,VALID,42,VALID,0.695499,
2005-05-23, 02:27:00,VALID,916.276,VALID,0,VALID,98.056,VALID,-0.0509425,VALID,21.4448,VALID,47,VALID,0.789621,
2005-05-23, 02:28:00,VALID,916.248,VALID,0,VALID,98.131,VALID,-0.0339617,VALID,21.4227,VALID,51,VALID,0.908381,
2005-05-23, 02:29:00,VALID,916.236,VALID,0,VALID,98.3014,VALID,0,VALID,21.364,VALID,51,VALID,0.814098,
2005-05-23, 02:30:00,VALID,916.226,VALID,0,VALID,98.4998,VALID,-0.0339617,VALID,21.336,VALID,51,VALID,0.70846,
2005-05-23, 02:31:00,VALID,916.224,VALID,0,VALID,98.5888,VALID,-0.0339617,VALID,21.3059,VALID,51,VALID,0.750401,
2005-05-23, 02:32:00,VALID,916.219,VALID,0,VALID,98.6663,VALID,-0.0169808,VALID,21.2935,VALID,51,VALID,0.711806,
2005-05-23, 02:33:00,VALID,916.231,VALID,0,VALID,98.7287,VALID,-0.0339617,VALID,21.2671,VALID,44,VALID,0.829427,
2005-05-23, 02:34:00,VALID,916.242,VALID,0,VALID,98.7859,VALID,-0.0509425,VALID,21.2346,VALID,43,VALID,0.811914,
2005-05-23, 02:35:00,VALID,916.256,VALID,0,VALID,98.9029,VALID,-0.0169808,VALID,21.2192,VALID,43,VALID,0.530134,
2005-05-23, 02:36:00,VALID,916.27,VALID,0,VALID,99.0491,VALID,-0.0509425,VALID,21.2036,VALID,43,VALID,0.354492,
2005-05-23, 02:37:00,VALID,916.28,VALID,0,VALID,99.1394,VALID,-0.0339617,VALID,21.1971,VALID,43,VALID,0.149926,
2005-05-23, 02:38:00,VALID,916.279,VALID,0,VALID,99.2106,VALID,-0.0339617,VALID,21.1931,VALID,43,VALID,0.108631,
2005-05-23, 02:39:00,VALID,916.293,VALID,0,VALID,99.1979,VALID,-0.0509425,VALID,21.2093,VALID,43,VALID,0.275534,
2005-05-23, 02:40:00,VALID,916.293,VALID,0,VALID,99.1445,VALID,-0.0169808,VALID,21.1899,VALID,352,VALID,0.528516,
2005-05-23, 02:41:00,VALID,916.294,VALID,0,VALID,99.1521,VALID,-0.0339617,VALID,21.174,VALID,333,VALID,0.652439,
2005-05-23, 02:42:00,VALID,916.276,VALID,0,VALID,99.3021,VALID,-0.0679233,VALID,21.1479,VALID,332,VALID,0.384766,
2005-05-23, 02:43:00,VALID,916.274,VALID,0,VALID,99.4255,VALID,-0.0339617,VALID,21.135,VALID,326,VALID,0.24314,
2005-05-23, 02:44:00,VALID,916.249,VALID,0,VALID,99.5298,VALID,-0.0509425,VALID,21.1352,VALID,322,VALID,0.26726,
2005-05-23, 02:45:00,VALID,916.218,VALID,0,VALID,99.5844,VALID,-0.0339617,VALID,21.1452,VALID,310,VALID,0.118676,
2005-05-23, 02:46:00,VALID,916.203,VALID,0,VALID,99.6671,VALID,-0.0169808,VALID,21.1479,VALID,310,VALID,0,
2005-05-23, 02:47:00,VALID,916.191,VALID,0,VALID,99.7345,VALID,-0.0169808,VALID,21.1608,VALID,310,VALID,0,
2005-05-23, 02:48:01,VALID,916.179,VALID,0,VALID,99.7065,VALID,-0.0849042,VALID,21.1772,VALID,310,VALID,0.00381541,
2005-05-23, 02:49:00,VALID,916.188,VALID,0,VALID,99.6671,VALID,-0.0849042,VALID,21.2006,VALID,310,VALID,0.0417969,
2005-05-23, 02:50:00,VALID,916.186,VALID,0,VALID,99.6315,VALID,-0.0509425,VALID,21.1907,VALID,310,VALID,0.00177557,
2005-05-23, 02:51:00,VALID,916.191,VALID,0,VALID,99.6417,VALID,-0.0679233,VALID,21.1872,VALID,310,VALID,0,
2005-05-23, 02:52:01,VALID,916.208,VALID,0,VALID,99.6544,VALID,-0.0849042,VALID,21.1934,VALID,312,VALID,0.206473,
2005-05-23, 02:53:00,VALID,916.222,VALID,0,VALID,99.6747,VALID,-0.0509425,VALID,21.2071,VALID,313,VALID,0.0921875,
2005-05-23, 02:54:00,VALID,916.231,VALID,0,VALID,99.7167,VALID,-0.0679233,VALID,21.2227,VALID,313,VALID,0.174805,
2005-05-23, 02:55:00,VALID,916.237,VALID,0,VALID,99.6328,VALID,-0.0509425,VALID,21.2386,VALID,313,VALID,0.222747,
2005-05-23, 02:56:00,VALID,916.252,VALID,0,VALID,99.5539,VALID,-0.0509425,VALID,21.2513,VALID,313,VALID,0.078497,
2005-05-23, 02:57:01,VALID,916.251,VALID,0,VALID,99.5259,VALID,-0.0509425,VALID,21.2741,VALID,313,VALID,0.0421196,
2005-05-23, 02:58:01,VALID,916.255,VALID,0,VALID,99.409,VALID,-0.0339617,VALID,21.2873,VALID,313,VALID,0.209794,
2005-05-23, 02:59:00,VALID,916.253,VALID,0,VALID,99.1801,VALID,-0.0169808,VALID,21.2644,VALID,313,VALID,0.223028,
2005-05-23, 03:00:00,VALID,916.266,VALID,0,VALID,99.1775,VALID,-0.0339617,VALID,21.2941,VALID,313,VALID,0.330915,
2005-05-23, 03:01:00,VALID,916.27,VALID,0,VALID,99.1521,VALID,-0.0169808,VALID,21.2973,VALID,313,VALID,0.130035,
2005-05-23, 03:02:00,VALID,916.286,VALID,0,VALID,99.0262,VALID,-0.0509425,VALID,21.2871,VALID,313,VALID,0.255859,
2005-05-23, 03:03:00,VALID,916.299,VALID,0,VALID,98.8164,VALID,-0.0509425,VALID,21.2577,VALID,313,VALID,0.223611,
2005-05-23, 03:04:00,VALID,916.327,VALID,0,VALID,98.8494,VALID,-0.0339617,VALID,21.2416,VALID,313,VALID,0.118676,
2005-05-23, 03:05:00,VALID,916.335,VALID,0,VALID,98.9944,VALID,-0.0679233,VALID,21.2386,VALID,312,VALID,0.340774,
2005-05-23, 03:06:00,VALID,916.374,VALID,0,VALID,99.0949,VALID,-0.0509425,VALID,21.2321,VALID,302,VALID,0.306868,
2005-05-23, 03:07:00,VALID,916.387,VALID,0,VALID,99.1521,VALID,-0.0339617,VALID,21.226,VALID,302,VALID,0.0201672,
2005-05-23, 03:08:01,VALID,916.411,VALID,0,VALID,99.2729,VALID,-0.0169808,VALID,21.2254,VALID,302,VALID,0.0388889,
2005-05-23, 03:09:01,VALID,916.418,VALID,0,VALID,99.3619,VALID,-0.0169808,VALID,21.2284,VALID,302,VALID,0.0106997,
2005-05-23, 03:10:00,VALID,916.422,VALID,0,VALID,99.4013,VALID,-0.0509425,VALID,21.2515,VALID,302,VALID,0.000600962,
2005-05-23, 03:11:00,VALID,916.435,VALID,0,VALID,99.3225,VALID,-0.0339617,VALID,21.248,VALID,302,VALID,0.000186012,
2005-05-23, 03:12:00,VALID,916.438,VALID,0,VALID,99.2691,VALID,-0.0169808,VALID,21.2548,VALID,302,VALID,0,
2005-05-23, 03:13:00,VALID,916.447,VALID,0,VALID,99.2907,VALID,-0.0849042,VALID,21.2583,VALID,302,VALID,0,
2005-05-23, 03:14:00,VALID,916.447,VALID,0,VALID,99.2615,VALID,-0.0169808,VALID,21.2674,VALID,302,VALID,0,
2005-05-23, 03:15:01,VALID,916.432,VALID,0,VALID,99.1941,VALID,-0.0339617,VALID,21.2709,VALID,302,VALID,0,
2005-05-23, 03:16:00,VALID,916.442,VALID,0,VALID,99.1699,VALID,-0.0509425,VALID,21.2744,VALID,302,VALID,0.00887784,
2005-05-23, 03:17:00,VALID,916.43,VALID,0,VALID,99.1763,VALID,-0.0679233,VALID,21.2941,VALID,302,VALID,0.028343,
2005-05-23, 03:18:00,VALID,916.414,VALID,0,VALID,99.2042,VALID,-0.0849042,VALID,21.2935,VALID,302,VALID,0,
2005-05-23, 03:19:01,VALID,916.413,VALID,0,VALID,99.1318,VALID,-0.0509425,VALID,21.3202,VALID,302,VALID,0,
2005-05-23, 03:20:00,VALID,916.385,VALID,0,VALID,99.0186,VALID,-0.0679233,VALID,21.3223,VALID,302,VALID,0.060902,
2005-05-23, 03:21:00,VALID,916.375,VALID,0,VALID,98.9219,VALID,-0.0339617,VALID,21.3288,VALID,302,VALID,0.173735,
2005-05-23, 03:22:00,VALID,916.367,VALID,0,VALID,98.913,VALID,0.0849042,VALID,21.3404,VALID,302,VALID,0.201672,
2005-05-23, 03:23:00,VALID,916.35,VALID,0,VALID,98.8558,VALID,0.0339617,VALID,21.363,VALID,302,VALID,0.356771,
2005-05-23, 03:24:00,VALID,916.335,VALID,0,VALID,98.8202,VALID,0.0509425,VALID,21.3764,VALID,302,VALID,0.396949,
2005-05-23, 03:25:01,VALID,916.302,VALID,0,VALID,98.7681,VALID,0.0679233,VALID,21.3858,VALID,302,VALID,0.432617,
2005-05-23, 03:26:00,VALID,916.294,VALID,0,VALID,98.6816,VALID,0.0849042,VALID,21.3692,VALID,338,VALID,0.570694,
2005-05-23, 03:27:00,VALID,916.264,VALID,0,VALID,98.6282,VALID,0.0509425,VALID,21.3697,VALID,358,VALID,0.676669,
2005-05-23, 03:28:01,VALID,916.243,VALID,0,VALID,98.6053,VALID,0.0849042,VALID,21.36,VALID,360,VALID,0.554857,
2005-05-23, 03:29:00,VALID,916.225,VALID,0,VALID,98.6752,VALID,0.0679233,VALID,21.3568,VALID,4,VALID,0.505149,
2005-05-23, 03:30:00,VALID,916.199,VALID,0,VALID,98.5811,VALID,0.0339617,VALID,21.3471,VALID,8,VALID,0.432478,
2005-05-23, 03:31:01,VALID,916.193,VALID,0,VALID,98.6473,VALID,0.0509425,VALID,21.3253,VALID,4,VALID,0.575945,